TITAN 3C TRANSTAGE R/B, 3692

Orbit data source: Space-Track

TITAN 3C TRANSTAGE R/B, 3692 is space debris in GEO originally from a launch on Sun, 09 Feb 1969 UTC launched from the Air Force Eastern Test Range (AFETR). Debris objects in space refer to the collection of defunct objects orbiting the Earth. Examples of debris include non-operational satellites, rocket bodies, and fragments generated from explosions, collisions, or faulty payload assembly.

Not visible in the next 10 days
Identifier
3692, 1969-013B
Orbit
GEO
Country
Flag of USUS
Related business
Manufacturer
Martin Marietta
Mission
Spacecraft
Bus & Motor
TRANSTAGE, Unknown motor
Mass
2,028 kg wet, 2,028 kg dry
Launch date (UTC)
1969-02-09 (57 years ago)
Launch vehicle
Unknown
Launch site
Air Force Eastern Test Range (AFETR)
Object type
Payload
Rocket body
Debris
Shape & HBR
Unknown
Radar Cross Section
Large (>1 m²)

Expand to show TLE details & history
Last TLE update: 7 hours ago

TLE from 7 hours ago
0 TITAN 3C TRANSTAGE R/B
1 03692U 69013B   25354.93089896 -.00000117  00000-0  00000-0 0  9990
2 03692   0.8422  76.3999 0166229  36.1307  66.5292  0.97535328 40586
Epoch: 2025-12-20T22:20Z
TLE epoch observation values (Epoch: 2025-12-20T22:20:29.670Z)
Latitude
0.81566°
Longitude
115.95025°
Altitude
36,298.319 km
Speed
3.066 km/s
True Right ascension
12h 03m 17s
True Declination
0° 48' 53"
Sunlit
Object was in daylight at epoch
Visualization orbit readout
Latitude
Unknown
Longitude
Unknown
Altitude
Unknown
Speed
Unknown
Apparent Right ascension
Unknown
Apparent Declination
Unknown
Sunlit
N/A
Visualization observer readout
Local Sidereal Time
03:55:49
Azimuth
Unknown
Elevation
Unknown
Doppler factor
Unknown
Orbital elements
Apogee altitude
37,286.622 km
Perigee altitude
35,858.688 km
Semi-major axis
42,950.792 km
Eccentricity
0.01662
Inclination
0.8422°
RAAN
76.3999°
Arg. of periapsis
36.1307°
True anomaly
68.29074°
Mean anomaly
66.5292°
Eccentric anomaly
67.40854°
Mean motion
0.24383 °/min
Orbital period
1,476.44 mins
BSTAR
0
Loading maneuver chart data...
Computing Atmospheric mass density...

Documentation

Showing up to 5 results
|